San Jose, CA

2:53 AM PDT on March 26, 2017 (GMT -0700)
San Jose International

Weather History for KSJC - March, 2012

Change the Weather History Date:

Friday, March 23, 2012

  Actual Average Record
Temperature  
Mean Temperature 53 °F 57 °F  
Max Temperature 67 °F 66 °F 80 °F (2000)
Min Temperature 39 °F 47 °F 29 °F (1894)
Degree Days  
Heating Degree Days 12 8  
Month to date heating degree days 245 212  
Since 1 July heating degree days 1862 1877  
Cooling Degree Days 0 0  
Month to date cooling degree days 0 0  
Year to date cooling degree days 0 0  
Growing Degree Days 2 (Base 50)    
Moisture  
Dew Point 31 °F    
Average Humidity 52    
Maximum Humidity 85    
Minimum Humidity 18    
Precipitation  
Precipitation 0.00 in 0.07 in 1.02 in (1907)
Month to date precipitation 0.73 2.05  
Year to date precipitation 2.26 8.23  
Since 1 July precipitation 3.81  
Sea Level Pressure  
Sea Level Pressure 30.02 in    
Wind  
Wind Speed 7 mph (SE)    
Max Wind Speed 17 mph    
Max Gust Speed 24 mph    
Visibility 10 miles    
Events      
T = Trace of Precipitation, MM = Missing Value Source: NWS Daily Summary

Daily Weather History Graph

Daily Weather History Graph

Search for Another Location

Airport or City:

Trip Planner

Search our weather history database for the weather conditions in past years. The results will help you decide how hot, cold, wet, or windy it might be!

Date:

Astronomy

Mar. 23, 2012 Rise Set
Actual Time 7:05 AM PDT 7:22 PM PDT
Civil Twilight 6:39 AM PDT 7:48 PM PDT
Nautical Twilight 6:09 AM PDT 8:19 PM PDT
Astronomical Twilight 5:38 AM PDT 8:50 PM PDT
Moon 7:19 AM PDT (3/23) 8:47 PM PDT (3/23)
Length of Visible Light 13h 09m
Length of Day
12h 16m
New Moon, 1% of the Moon is Illuminated
Mar 23
New Moon
Mar 30
First Quarter
Apr 6
Full
Apr 13
Last Quarter
Apr 21
New

Hourly Weather History & Observations

Time (PDT) Temp. Windchill Dew Point Humidity Pressure Visibility Wind Dir Wind Speed Gust Speed Precip Events Conditions
12:53 AM 45.0 °F - 36.0 °F 71% 30.06 in 10.0 mi Calm Calm - N/A   Clear
1:53 AM 44.1 °F 41.5 °F 35.1 °F 71% 30.06 in 10.0 mi South 4.6 mph - N/A   Mostly Cloudy
2:53 AM 43.0 °F 41.3 °F 35.1 °F 74% 30.07 in 10.0 mi SE 3.5 mph - N/A   Clear
3:53 AM 42.1 °F 39.2 °F 35.1 °F 76% 30.06 in 10.0 mi SSE 4.6 mph - N/A   Clear
4:53 AM 39.0 °F 35.7 °F 34.0 °F 82% 30.06 in 10.0 mi East 4.6 mph - N/A   Clear
5:53 AM 41.0 °F - 35.1 °F 79% 30.07 in 10.0 mi Calm Calm - N/A   Clear
6:53 AM 39.9 °F 36.7 °F 35.1 °F 83% 30.08 in 10.0 mi SSE 4.6 mph - N/A   Partly Cloudy
7:53 AM 41.0 °F 38.0 °F 35.1 °F 79% 30.11 in 10.0 mi ESE 4.6 mph - N/A   Scattered Clouds
8:53 AM 46.0 °F 41.9 °F 37.0 °F 71% 30.11 in 10.0 mi ESE 8.1 mph - N/A   Scattered Clouds
9:53 AM 50.0 °F - 36.0 °F 59% 30.10 in 10.0 mi ESE 6.9 mph - N/A   Scattered Clouds
10:53 AM 54.0 °F - 33.1 °F 45% 30.09 in 10.0 mi ENE 3.5 mph - N/A   Partly Cloudy
11:53 AM 57.0 °F - 28.9 °F 34% 30.06 in 10.0 mi Variable 4.6 mph - N/A   Scattered Clouds
12:53 PM 60.1 °F - 24.1 °F 25% 30.04 in 10.0 mi Variable 6.9 mph - N/A   Scattered Clouds
1:53 PM 63.0 °F - 25.0 °F 24% 30.00 in 10.0 mi Variable 3.5 mph - N/A   Scattered Clouds
2:53 PM 64.9 °F - 26.1 °F 23% 29.97 in 10.0 mi SE 9.2 mph - N/A   Scattered Clouds
3:53 PM 64.9 °F - 19.0 °F 17% 29.95 in 10.0 mi South 13.8 mph 20.7 mph N/A   Mostly Cloudy
4:53 PM 63.0 °F - 21.9 °F 21% 29.96 in 10.0 mi South 15.0 mph 19.6 mph N/A   Mostly Cloudy
5:53 PM 60.1 °F - 26.1 °F 27% 29.95 in 10.0 mi South 8.1 mph - N/A   Mostly Cloudy
6:53 PM 55.9 °F - 25.0 °F 30% 29.95 in 10.0 mi South 13.8 mph 24.2 mph N/A   Mostly Cloudy
7:53 PM 55.0 °F - 28.0 °F 35% 29.95 in 10.0 mi South 11.5 mph - N/A   Mostly Cloudy
8:53 PM 54.0 °F - 28.9 °F 38% 29.94 in 10.0 mi South 5.8 mph - N/A   Mostly Cloudy
9:53 PM 54.0 °F - 28.9 °F 38% 29.94 in 10.0 mi SE 9.2 mph - N/A   Mostly Cloudy
10:53 PM 51.1 °F - 33.1 °F 50% 29.92 in 10.0 mi ESE 10.4 mph - N/A   Scattered Clouds
11:53 PM 51.1 °F - 34.0 °F 52% 29.91 in 10.0 mi Variable 3.5 mph - N/A   Scattered Clouds